Temp
61 60 60 60 60 59 59 59 59 60 61 60 61 61 61 61 61 74 73 79 80 70 75 86 85 86 88 87 90 90 76 74 78 79 81 91 86 90 92 90 92 94 93 97 99
60 60 60 60 60 60 59 59 60 59 60 60 60 60 60 60 67 72 80 73 72 72 83 83 81 84 82 83 85 81 76 77 86 87 85 89 87 89 85 86 87 91 97 99 99
59 60 59 60 59 59 59 59 60 60 59 59 59 60 60 63 69 80 72 73 72 75 87 89 89 85 79 84 83 82 75 86 87 89 89 86 86 91 86 82 85 88 92 95 96
59 59 59 59 59 59 59 59 59 60 60 59 59 59 60 67 64 79 71 72 73 80 83 85 84 79 76 77 83 76 83 85 87 89 87 84 88 85 87 85 90 93 94 94 93
58 59 59 58 59 59 59 59 59 59 59 59 59 59 63 61 68 84 73 76 84 80 80 82 79 80 74 80 81 79 81 85 87 86 86 86 83 84 85 88 92 93 93 92 93
58 58 58 58 58 58 58 58 58 58 58 58 59 59 61 52 78 80 78 79 80 82 80 83 81 84 81 81 80 83 83 83 85 85 86 82 83 85 86 87 89 91 92 93 94
57 57 57 58 58 58 58 57 57 57 58 59 60 61 58 59 77 80 78 77 78 80 79 83 86 80 81 76 84 82 75 80 81 83 82 85 75 77 87 88 87 89 91 93 93
57 57 57 57 58 58 58 57 56 57 58 59 60 61 55 74 79 74 77 75 79 78 78 84 85 80 79 82 77 75 75 68 80 81 81 79 69 82 90 90 88 88 90 91 92
57 57 57 57 57 58 57 56 57 58 59 60 59 59 57 69 65 73 75 69 76 78 77 80 80 76 77 69 67 71 64 69 73 84 81 78 71 83 90 88 84 85 88 89 91
57 56 56 56 57 57 56 56 59 58 63 66 65 54 63 63 69 71 77 72 68 72 70 71 73 69 70 68 58 64 66 69 70 79 77 75 74 82 87 86 83 85 86 88 88
57 56 56 56 56 56 58 68 63 60 63 59 61 59 65 72 74 70 74 69 68 66 61 68 64 62 67 69 71 71 70 69 75 81 76 74 74 79 84 84 82 84 85 86 87
56 56 56 56 56 55 62 59 56 58 49 63 62 62 65 68 57 64 72 62 62 58 65 65 60 70 73 73 69 68 67 68 74 78 76 73 71 77 81 82 82 83 85 87 88
55 55 56 56 55 58 60 58 65 64 48 57 62 60 62 64 57 60 67 65 61 58 62 61 66 73 72 69 67 67 65 66 66 71 74 70 66 70 78 82 84 86 87 87 87
55 55 55 55 55 62 59 63 66 64 41 52 56 60 64 62 55 68 69 66 62 57 62 63 73 71 69 67 70 62 72 68 65 64 58 72 56 68 74 76 80 83 85 88 90
55 55 55 54 56 56 61 65 66 59 30 53 56 70 67 60 61 63 72 64 56 60 63 60 64 65 66 68 72 66 70 68 67 64 63 64 60 66 74 72 76 81 85 88 91
54 55 54 61 58 60 65 64 60 38 30 48 57 54 56 60 60 64 63 67 66 59 63 63 74 71 70 73 73 74 68 68 68 64 53 62 62 63 70 73 78 84 86 89 87
54 53 54 59 54 63 64 58 38 33 51 45 47 53 53 53 55 56 55 55 52 47 49 59 62 70 74 69 73 69 63 55 50 51 50 66 62 65 75 79 81 82 85 84 82
53 52 53 63 62 60 57 45 29 42 42 52 50 51 47 54 52 51 52 49 59 56 55 49 49 62 71 69 65 65 64 58 46 49 57 68 57 66 78 83 85 86 86 85 81
51 65 62 61 63 61 48 33 39 43 47 45 48 45 47 50 49 49 48 40 49 58 49 49 53 69 71 73 73 65 61 72 62 62 59 65 67 73 78 79 82 83 84 83 80
58 59 57 60 60 51 42 36 42 49 50 48 39 44 40 45 45 47 43 37 39 51 55 53 48 66 68 74 74 70 73 59 64 49 48 59 60 65 72 76 81 83 83 81 80
58 54 60 62 61 49 35 43 46 52 51 44 43 41 42 43 46 44 39 42 40 47 54 54 53 59 67 63 64 67 65 66 67 64 53 53 59 73 74 80 81 84 83 80 79
55 50 62 63 40 45 38 45 46 48 53 49 48 45 42 43 44 44 39 42 46 47 43 51 51 47 59 70 74 72 68 66 59 54 62 60 60 79 79 81 80 83 82 82 82
49 54 63 58 35 37 45 45 49 47 48 46 44 47 49 44 39 43 43 49 48 44 41 44 49 47 55 64 69 66 68 69 67 67 57 55 60 82 81 81 81 80 80 80 81
52 45 54 54 48 39 39 42 43 51 49 48 47 49 46 44 47 42 42 40 43 45 45 45 48 50 51 57 64 61 65 69 65 60 60 62 65 75 78 79 80 79 79 81 81
53 48 47 42 41 41 42 42 40 38 49 51 46 44 44 39 43 39 42 44 41 43 45 46 46 52 56 57 58 64 64 67 63 65 61 64 66 73 80 79 80 81 80 80 80
44 40 49 43 46 43 42 41 40 41 37 42 42 45 47 42 43 41 46 42 42 47 47 49 45 52 50 58 58 58 65 67 67 67 67 67 67 80 82 82 81 80 80 80 80
50 48 40 42 41 37 39 39 37 38 40 44 42 41 43 48 51 53 53 51 49 45 43 42 41 48 47 57 56 51 62 65 66 69 69 64 70 78 77 78 79 79 80 81 81
MSLP
1021.86 1021.45 1021.11 1020.93 1020.84 1020.60 1020.26 1020.00 1019.71 1019.42 1018.83 1018.44 1018.06 1017.88 1017.44 1016.91 1016.23 1014.83 1013.34 1012.10 1012.08 1012.39 1012.53 1012.04 1011.87 1011.73 1011.49 1010.54 1009.65 1009.04 1007.48 1005.63 1004.89 1004.36 1004.39 1004.39 1004.74 1004.82 1005.20 1004.74 1004.50 1004.64 1004.63 1004.50 1004.90
1022.21 1021.87 1021.56 1021.23 1020.84 1020.38 1020.15 1019.82 1019.60 1019.41 1019.10 1018.72 1018.44 1018.04 1017.66 1017.08 1015.60 1013.24 1011.51 1011.73 1011.99 1011.99 1011.89 1011.25 1010.80 1010.84 1010.39 1009.38 1008.98 1008.36 1006.14 1005.01 1004.58 1004.32 1004.42 1004.42 1004.63 1004.70 1005.08 1004.71 1004.18 1004.15 1003.96 1004.02 1004.34
1022.39 1021.97 1021.46 1021.00 1020.60 1020.19 1019.94 1019.70 1019.31 1019.26 1019.04 1018.69 1018.42 1018.13 1017.67 1016.93 1014.37 1010.45 1011.10 1011.17 1011.36 1011.36 1010.83 1010.51 1009.86 1009.87 1009.25 1008.61 1007.86 1007.06 1004.97 1004.40 1004.10 1004.34 1004.63 1004.80 1004.66 1004.58 1004.26 1004.18 1003.91 1003.79 1003.68 1003.80 1003.77
1022.46 1022.08 1021.66 1021.29 1020.91 1020.53 1020.21 1019.88 1019.53 1019.19 1018.87 1018.73 1018.53 1018.23 1017.56 1016.15 1012.35 1010.12 1011.11 1011.10 1010.43 1010.18 1010.44 1009.83 1009.50 1008.78 1008.43 1007.36 1007.29 1006.23 1004.96 1004.55 1004.19 1003.99 1004.48 1004.76 1004.49 1003.99 1003.85 1004.11 1003.93 1003.94 1003.74 1003.51 1003.14
1022.38 1021.92 1021.58 1021.20 1020.78 1020.35 1019.95 1019.59 1019.27 1018.93 1018.68 1018.49 1018.35 1018.15 1017.11 1014.89 1011.28 1010.28 1011.05 1010.90 1010.01 1010.09 1009.21 1008.39 1008.28 1007.68 1007.10 1006.81 1006.66 1004.95 1004.95 1004.48 1004.24 1004.65 1004.62 1004.78 1004.22 1003.65 1003.21 1003.66 1003.64 1003.69 1003.17 1002.82 1002.54
1022.30 1021.92 1021.53 1021.05 1020.57 1020.11 1019.65 1019.24 1018.84 1018.44 1018.12 1017.99 1018.02 1017.99 1016.63 1013.65 1011.16 1010.87 1011.05 1010.74 1010.16 1009.45 1008.91 1008.46 1007.63 1007.33 1006.40 1005.80 1005.31 1004.74 1004.47 1004.44 1004.57 1004.22 1004.23 1004.06 1003.53 1003.47 1002.80 1003.14 1002.94 1002.66 1002.34 1002.14 1001.84
1022.11 1021.72 1021.24 1020.74 1020.24 1019.74 1019.25 1018.74 1018.31 1017.91 1017.59 1017.45 1017.27 1017.08 1015.53 1012.73 1011.30 1011.04 1010.99 1010.67 1010.46 1009.80 1008.67 1008.19 1007.69 1007.40 1006.37 1005.91 1005.08 1004.72 1004.49 1004.18 1004.15 1004.02 1003.62 1004.03 1002.55 1002.34 1002.31 1002.48 1002.16 1001.79 1001.60 1001.44 1001.26
1021.84 1021.41 1020.95 1020.40 1019.87 1019.31 1018.73 1018.17 1017.71 1017.21 1016.68 1016.51 1016.69 1016.41 1013.18 1011.28 1010.98 1010.88 1010.64 1010.16 1010.22 1010.35 1009.56 1008.41 1008.19 1007.55 1006.53 1005.98 1005.28 1004.56 1004.18 1003.02 1003.03 1003.43 1003.57 1004.09 1000.20 1001.22 1001.20 1001.12 1000.83 1001.11 1000.92 1000.70 1000.60
1021.59 1021.09 1020.61 1020.05 1019.51 1018.91 1018.26 1017.53 1016.91 1016.32 1015.95 1015.97 1016.03 1015.09 1011.59 1011.10 1011.03 1010.46 1010.45 1009.83 1009.23 1009.23 1009.40 1009.08 1008.46 1007.02 1006.61 1005.92 1005.01 1003.53 1001.72 1001.64 1002.20 1002.21 1002.40 1002.52 1000.18 1000.84 1000.43 1000.65 1000.84 1000.79 1000.44 1000.12 999.86
1021.32 1020.80 1020.27 1019.69 1019.13 1018.47 1017.65 1016.43 1015.73 1015.98 1015.35 1014.92 1014.55 1014.24 1011.22 1009.94 1009.99 1009.99 1009.61 1009.56 1009.16 1008.37 1008.47 1008.06 1007.25 1006.16 1005.38 1003.91 1000.75 1001.99 1001.77 1001.90 1000.90 1001.03 1002.08 1001.59 1000.25 1000.65 1000.27 1000.10 1000.50 1000.13 999.80 999.49 999.12
1020.96 1020.49 1019.98 1019.44 1018.92 1018.30 1017.13 1014.92 1014.84 1014.16 1013.75 1012.66 1011.58 1011.00 1009.74 1009.52 1009.48 1009.36 1009.00 1008.73 1008.45 1007.73 1005.93 1006.08 1005.69 1002.74 1000.40 1002.08 1002.25 1002.16 1001.16 1000.40 1000.36 1000.79 1001.18 1000.76 1000.13 999.80 999.80 999.58 999.76 999.44 999.00 998.59 998.31
1020.89 1020.35 1019.78 1019.19 1018.56 1017.99 1016.98 1015.60 1015.90 1016.13 1013.70 1011.58 1010.73 1010.48 1009.94 1009.84 1009.34 1008.58 1008.97 1008.17 1007.16 1005.81 1005.85 1004.80 1002.38 998.35 1001.93 1002.11 1002.00 1001.77 1001.14 1000.09 1000.49 1000.78 1000.99 1000.68 1000.10 999.89 999.68 999.13 998.95 998.56 997.95 997.57 997.51
1020.77 1020.25 1019.67 1019.11 1018.37 1017.82 1016.73 1016.26 1016.12 1015.91 1014.05 1010.15 1009.46 1009.12 1008.71 1008.76 1008.24 1007.19 1007.41 1006.85 1005.92 1005.10 1003.65 1001.51 997.14 1001.61 1000.64 1000.82 1000.74 1000.28 1000.50 1000.82 1000.97 1001.62 1001.36 1001.35 1000.13 999.71 998.99 998.05 997.50 997.08 997.01 996.93 996.86
1020.46 1019.93 1019.39 1018.87 1018.01 1017.02 1016.05 1016.41 1016.26 1016.13 1013.71 1008.96 1008.51 1008.14 1007.91 1008.11 1007.41 1006.69 1006.64 1006.15 1005.21 1004.09 1003.26 1001.67 1000.33 999.42 999.70 998.90 999.66 999.14 1000.73 1001.53 1001.62 1001.85 1000.44 1001.03 998.52 998.12 997.68 996.85 996.51 996.42 996.24 995.78 995.88
1020.20 1019.65 1019.17 1018.87 1017.97 1016.94 1016.20 1016.30 1016.09 1015.76 1011.89 1008.48 1007.80 1007.71 1007.15 1006.96 1006.36 1005.25 1005.43 1005.82 1004.44 1003.41 1002.70 999.24 999.53 998.98 997.94 996.75 999.31 998.89 1000.55 1001.13 1001.45 1001.18 1001.08 1000.49 999.36 997.14 996.90 995.78 995.26 995.15 994.88 994.80 995.10
1019.88 1019.27 1018.78 1017.13 1017.75 1017.07 1016.53 1016.38 1015.81 1014.58 1009.99 1008.01 1007.50 1007.48 1006.95 1006.22 1005.72 1005.27 1005.09 1005.21 1004.79 1004.05 1002.19 1000.29 999.15 998.46 996.77 998.30 998.68 999.81 1000.46 1000.84 1000.89 1000.65 999.58 999.42 998.72 996.44 995.04 994.28 994.09 993.79 993.78 993.79 995.18
1019.37 1018.78 1018.41 1017.89 1017.07 1016.99 1016.51 1015.61 1014.57 1012.09 1009.52 1008.55 1008.37 1007.96 1007.21 1006.15 1005.48 1005.33 1004.88 1004.27 1004.01 1003.27 1001.67 1000.29 999.06 998.28 997.33 997.37 998.14 999.00 999.48 999.22 999.49 998.90 998.11 998.03 997.11 995.21 994.05 993.58 993.41 993.49 993.43 994.51 995.70
1018.99 1018.49 1018.31 1017.48 1017.28 1017.21 1016.50 1015.17 1013.20 1010.95 1010.32 1009.67 1009.16 1008.60 1007.24 1006.18 1005.59 1006.14 1005.18 1004.53 1003.21 1002.96 1001.06 1000.22 998.47 997.50 996.52 995.68 995.79 996.81 997.31 996.43 996.42 996.79 996.72 996.13 995.51 994.12 993.73 993.04 992.60 992.89 993.45 994.25 995.64
1018.68 1017.50 1016.98 1017.37 1017.17 1017.06 1016.14 1014.44 1012.03 1011.53 1011.32 1010.65 1009.75 1008.06 1006.69 1006.27 1006.63 1006.35 1005.95 1006.70 1005.42 1003.21 1002.01 999.87 997.42 996.25 995.99 995.92 995.41 995.74 995.32 995.74 995.76 996.36 995.95 994.56 994.75 994.08 993.22 992.55 992.25 992.44 993.11 994.13 995.48
1018.17 1017.33 1017.07 1017.58 1017.64 1017.31 1016.23 1014.35 1012.86 1012.35 1011.79 1011.00 1009.80 1008.79 1007.78 1006.94 1006.83 1006.26 1007.15 1008.66 1008.09 1006.14 1004.63 1001.61 998.06 995.49 995.77 995.24 994.82 994.32 995.70 995.62 995.32 995.17 995.00 994.32 994.01 992.86 992.19 991.54 991.66 991.92 992.82 994.22 995.56
1017.86 1016.49 1017.09 1017.53 1017.48 1016.75 1015.62 1013.89 1013.22 1012.57 1012.13 1011.40 1010.27 1009.54 1008.78 1007.83 1007.23 1007.08 1008.06 1008.81 1009.26 1007.52 1005.64 1003.18 1000.08 995.92 995.14 993.84 992.76 993.50 993.81 994.51 994.89 994.80 994.40 993.97 993.27 992.76 992.50 991.51 991.39 991.77 992.82 994.23 995.39
1017.77 1015.97 1017.00 1017.12 1017.07 1016.35 1015.56 1014.81 1014.15 1012.67 1011.93 1011.25 1010.70 1009.98 1009.29 1008.79 1007.78 1007.25 1007.89 1008.42 1009.11 1008.27 1006.13 1004.02 1001.17 997.26 994.25 993.94 993.35 993.15 993.13 994.08 993.91 994.49 994.46 993.99 993.14 992.63 992.27 992.01 992.35 991.97 993.15 994.30 995.26
1018.09 1016.95 1016.90 1016.82 1016.56 1016.36 1015.63 1014.76 1013.53 1012.98 1012.07 1011.56 1010.87 1010.19 1009.66 1008.95 1008.30 1007.95 1008.14 1008.42 1008.85 1008.48 1007.31 1005.66 1001.79 997.69 994.72 994.30 993.64 992.76 993.48 993.77 994.19 993.75 994.04 993.96 993.07 992.19 992.32 992.20 992.67 992.81 993.71 994.60 995.25
1017.98 1016.53 1016.11 1016.60 1016.96 1016.89 1015.80 1014.42 1013.41 1012.94 1012.20 1011.88 1010.97 1010.35 1009.70 1008.81 1008.23 1008.08 1008.46 1009.54 1009.29 1008.52 1007.74 1006.37 1002.54 998.41 995.19 993.87 993.38 992.87 993.03 993.35 993.89 993.46 993.34 993.12 992.80 992.15 992.15 992.32 992.92 993.56 994.19 994.73 995.48
1018.65 1017.57 1018.05 1016.93 1016.80 1016.88 1016.18 1015.29 1014.21 1013.48 1012.39 1011.74 1010.87 1010.53 1009.77 1009.07 1008.31 1008.21 1008.60 1008.86 1009.03 1008.47 1007.38 1005.53 1002.25 999.62 997.60 996.28 995.07 993.13 993.07 992.98 993.48 993.58 993.08 992.97 993.00 992.50 991.86 992.65 993.27 993.81 994.34 994.85 995.41
1019.54 1019.59 1018.52 1017.81 1017.20 1016.71 1015.90 1014.99 1014.44 1013.85 1013.75 1012.22 1011.29 1010.50 1010.00 1009.28 1008.72 1007.80 1007.90 1008.05 1007.62 1007.39 1006.34 1005.07 1002.29 1000.02 998.31 997.20 995.95 994.10 993.26 993.32 993.67 993.74 993.56 993.53 992.95 992.68 992.77 993.32 993.77 994.11 994.60 994.80 995.21
1020.02 1019.86 1019.65 1018.06 1017.22 1016.75 1015.86 1015.51 1015.02 1014.62 1013.81 1012.86 1012.14 1011.28 1009.98 1008.70 1008.61 1008.16 1007.87 1007.52 1007.24 1007.06 1006.37 1005.37 1003.80 1000.56 997.88 997.06 996.25 995.15 993.57 993.69 994.15 994.23 994.32 993.50 993.52 993.65 993.71 994.00 994.19 994.61 994.73 994.65 995.03
Wind_Speed
17 16 14 14 12 12 12 13 15 16 16 16 16 17 17 19 21 13 14 7 6 13 6 9 10 10 13 16 15 15 11 14 19 18 15 9 10 5 3 10 11 12 14 14 15
16 16 16 17 17 16 14 13 12 13 15 15 15 16 16 18 18 17 9 8 12 15 11 16 17 15 14 17 12 16 15 23 21 19 18 19 12 13 10 15 21 17 19 15 13
15 15 16 17 18 18 18 17 15 13 13 14 15 15 16 19 12 10 10 2 16 16 20 18 16 17 21 20 21 21 26 24 21 23 19 22 20 20 19 18 23 22 21 20 19
15 15 15 15 16 16 16 16 16 15 14 12 13 14 15 9 10 9 10 11 6 19 21 23 20 20 20 26 23 31 28 23 24 25 20 21 24 23 23 22 26 24 22 23 23
15 15 16 16 16 16 17 17 17 16 14 13 12 11 11 10 18 6 11 7 4 12 22 27 26 23 27 23 26 33 26 25 22 23 22 23 26 29 26 24 26 22 22 20 20
15 15 16 17 16 17 16 16 16 16 16 14 11 9 13 18 6 9 11 12 10 9 14 21 15 22 23 27 28 25 25 30 24 24 23 24 26 28 26 21 27 23 22 20 21
16 17 18 17 17 17 17 17 16 18 19 16 13 9 15 22 10 9 16 15 9 12 14 16 23 14 15 20 24 24 26 26 20 21 23 20 26 29 23 24 25 21 20 18 17
17 16 19 18 18 18 19 19 20 21 23 17 13 11 11 8 10 15 16 17 17 15 13 11 14 22 21 14 14 21 25 26 23 22 18 16 32 23 18 21 17 17 17 17 18
19 17 19 19 19 20 20 21 24 18 9 6 9 11 12 7 10 12 9 15 14 17 15 13 17 20 13 23 19 25 25 31 26 22 17 22 34 25 18 15 14 16 19 17 18
18 18 18 19 19 21 22 24 11 7 7 7 5 7 8 8 1 5 12 10 11 14 16 20 14 17 22 21 29 26 24 26 28 16 18 23 31 24 22 20 22 20 19 20 19
21 19 18 17 19 19 16 8 5 9 8 13 9 14 23 16 10 14 7 5 10 17 26 24 21 30 40 32 25 25 27 30 26 23 26 26 29 28 26 20 23 24 19 21 21
21 21 20 19 20 17 10 8 4 6 14 15 21 21 23 20 13 19 15 11 13 21 25 21 31 43 28 29 27 27 29 30 26 22 23 22 26 26 24 23 25 26 24 21 20
18 19 18 18 17 7 9 5 5 9 8 16 7 8 3 5 11 17 16 20 19 20 31 35 42 25 31 29 32 31 30 26 26 18 20 22 27 28 27 30 27 24 22 18 20
19 18 18 18 12 8 6 2 7 6 8 9 6 6 5 4 7 14 10 21 19 25 25 32 31 26 32 35 32 32 24 22 20 19 21 18 22 24 21 25 24 23 22 22 18
19 20 18 10 10 6 6 6 8 6 8 7 7 6 7 8 7 3 7 15 26 22 16 31 23 36 31 37 28 25 14 19 21 19 20 23 17 20 22 22 21 21 21 19 14
20 20 17 6 2 8 8 8 7 7 8 0 2 4 10 10 7 7 6 15 14 26 27 28 13 22 39 20 26 18 14 18 16 14 19 20 21 17 20 24 21 13 12 10 8
23 21 7 4 4 8 7 7 7 9 5 0 7 11 17 16 10 6 9 9 13 18 27 23 27 23 18 27 22 23 21 11 12 13 12 16 16 21 21 17 14 12 5 8 7
23 17 5 3 6 6 4 6 6 5 7 17 13 19 20 17 5 7 13 10 16 22 19 22 22 31 25 29 21 28 25 12 17 12 13 18 10 13 11 14 11 13 10 3 7
22 1 4 7 4 2 5 5 7 11 10 12 17 16 12 3 4 6 5 7 10 12 20 14 27 30 21 26 29 32 26 21 10 2 6 8 10 12 20 19 12 5 9 7 10
6 4 6 5 3 2 3 5 6 8 12 14 16 7 12 11 9 6 1 4 10 16 10 9 14 22 31 25 27 29 23 21 14 15 13 8 11 8 5 5 9 10 8 11 13
4 5 7 6 2 3 4 7 12 11 12 9 14 15 14 11 8 6 1 1 3 15 12 11 9 20 29 25 26 19 23 20 14 10 10 5 5 10 12 4 1 6 9 15 16
5 3 4 4 3 2 5 11 12 11 12 10 7 9 7 9 12 8 6 6 3 8 8 6 8 12 26 24 23 23 19 22 14 19 11 5 4 4 1 3 4 3 10 15 17
6 3 3 6 4 6 9 15 14 13 13 11 12 7 14 13 8 3 3 5 5 4 6 3 10 10 19 22 22 26 23 21 16 9 17 13 5 10 4 8 6 6 11 15 18
5 4 2 3 2 6 12 8 12 8 13 7 14 9 10 12 4 7 9 5 6 9 9 7 10 14 8 16 12 25 26 26 20 11 13 17 8 9 10 7 9 7 12 15 16
4 5 4 5 6 12 10 9 13 9 6 13 7 7 10 9 15 0 7 11 5 5 5 5 15 18 14 5 5 14 26 23 25 18 16 12 18 18 8 3 10 6 10 14 16
5 4 5 10 10 11 8 8 14 14 5 12 14 14 16 16 14 18 13 7 4 5 6 5 7 14 17 12 5 6 24 23 22 22 16 11 15 11 8 4 7 3 8 13 16
1 3 2 7 6 8 7 14 9 16 6 8 11 12 16 12 11 13 12 13 13 14 11 6 5 10 19 14 5 7 12 18 20 21 18 20 17 13 10 10 10 9 3 11 14
Wind_Direction
359 355 352 352 344 343 342 338 335 332 332 332 331 332 330 323 309 264 253 241 194 162 207 177 188 209 210 231 229 237 236 247 256 263 265 226 263 131 322 266 267 285 276 304 309
355 349 350 348 348 345 337 332 331 329 328 327 325 325 322 318 302 269 242 222 196 169 213 203 194 194 214 223 216 224 229 246 261 274 269 284 245 286 272 270 275 267 264 265 269
351 346 347 344 342 340 336 333 326 323 323 323 322 322 317 307 273 243 54 264 228 201 228 230 235 203 225 230 220 233 245 256 249 259 258 279 273 273 276 275 271 288 303 295 294
347 347 343 339 335 331 326 324 321 319 315 315 315 315 316 293 254 86 45 342 322 198 213 217 217 215 231 233 229 244 253 253 263 261 257 260 274 280 274 277 277 287 293 291 288
344 342 339 334 331 327 321 318 316 316 309 305 305 308 296 235 246 136 337 347 314 187 207 201 211 212 226 235 241 245 252 262 250 265 268 276 271 274 277 279 280 283 284 283 282
336 341 335 329 326 322 317 313 308 305 299 293 283 289 261 255 316 294 296 298 278 232 208 216 223 223 241 237 243 249 254 254 263 260 264 266 269 271 268 272 280 281 285 286 284
342 337 333 329 324 318 315 310 304 295 291 280 267 255 258 252 277 287 285 282 274 264 235 214 219 220 218 248 252 254 257 260 248 256 254 265 268 257 264 264 270 278 283 281 285
336 333 334 332 326 321 315 307 300 295 288 273 253 247 259 252 269 268 273 264 244 240 254 258 230 239 244 270 271 246 239 248 234 235 240 239 260 266 280 272 270 277 281 291 287
336 333 333 332 331 324 314 302 298 293 280 232 209 222 268 110 234 246 243 252 255 226 231 239 228 228 224 232 248 231 239 238 242 242 245 226 258 254 261 267 264 277 284 287 289
330 332 329 329 328 325 318 299 295 239 198 186 244 220 233 242 273 257 276 232 242 219 205 212 210 216 223 212 225 228 228 241 259 228 225 242 250 259 263 266 278 276 284 284 286
336 333 331 330 327 324 315 290 240 197 224 266 269 248 291 285 310 265 249 228 218 227 204 196 205 217 215 218 234 250 250 247 244 234 246 252 262 274 275 279 269 274 279 279 284
337 334 332 329 326 321 290 339 26 351 296 275 257 260 269 280 273 266 262 237 201 217 210 192 217 220 219 222 224 235 240 247 258 261 267 278 276 273 273 274 276 274 270 272 270
332 330 328 329 317 272 331 305 341 329 267 293 274 256 278 230 237 258 219 218 230 227 211 214 224 217 218 219 224 226 235 244 257 273 261 255 266 270 264 259 261 262 258 257 263
332 330 331 333 277 345 290 169 301 314 274 240 190 182 207 211 231 236 236 232 219 235 227 231 231 218 222 223 217 231 224 246 255 254 256 251 275 273 281 276 268 266 263 264 265
328 326 328 322 298 278 1 304 309 234 274 100 139 100 297 260 302 91 162 232 235 222 221 224 219 230 220 222 219 233 232 235 238 251 267 258 261 274 262 267 259 257 255 249 243
323 325 326 261 233 270 301 299 257 234 249 156 118 332 305 301 286 298 290 204 256 240 243 244 222 222 231 220 220 219 213 224 235 245 248 250 250 266 265 261 267 267 246 216 168
325 325 320 320 337 331 304 258 233 249 49 41 329 326 310 296 303 296 292 263 223 213 229 229 237 245 227 208 199 192 190 192 213 218 245 247 241 249 278 282 262 259 207 142 156
327 317 132 336 327 298 246 232 271 310 302 331 325 307 294 291 309 305 282 303 215 247 227 224 222 220 205 211 184 192 188 207 216 227 240 214 240 242 276 273 276 242 225 140 156
311 115 32 21 7 220 263 255 340 354 344 313 301 276 274 241 299 273 344 4 315 260 240 236 231 185 215 210 198 187 208 211 244 194 264 209 235 266 259 258 256 228 211 178 155
319 276 60 20 13 355 289 292 318 319 311 303 298 306 309 319 307 275 8 99 322 346 330 275 265 210 200 202 205 194 191 200 212 224 233 234 250 257 302 195 226 233 192 161 150
288 259 71 323 237 254 313 341 317 328 318 314 311 303 306 304 306 314 233 76 19 312 294 275 258 205 185 198 187 190 195 209 198 239 196 233 220 258 256 299 162 161 154 156 153
313 294 49 301 253 339 313 334 316 301 313 299 286 294 293 308 299 302 229 159 182 293 293 309 301 277 190 199 214 203 188 194 198 190 235 270 274 160 46 277 338 201 145 151 152
332 308 83 286 10 346 326 305 282 297 312 315 303 304 317 298 290 293 291 151 213 281 314 334 234 222 196 186 207 197 201 192 210 199 205 208 233 212 73 76 48 117 143 152 149
300 323 100 18 353 311 331 323 324 321 297 291 304 296 323 332 300 294 348 18 294 272 303 254 260 257 206 176 197 198 198 192 202 202 198 215 221 213 160 77 50 95 153 156 159
358 30 357 321 324 320 310 296 306 317 309 306 296 280 335 327 316 76 339 316 210 277 277 279 236 235 263 343 308 229 200 194 198 216 222 191 228 246 212 41 25 20 163 160 159
342 338 343 297 301 318 309 302 307 316 302 305 301 320 314 302 294 295 307 295 317 256 299 311 267 255 251 227 251 292 196 200 203 213 224 227 244 243 256 283 319 15 193 180 169
215 258 257 294 302 312 328 321 302 309 258 291 301 298 293 314 323 303 298 281 277 291 302 302 308 232 230 205 230 221 206 200 209 217 222 225 234 274 297 309 317 353 289 209 183